Beatrice, NE

7:02 AM CDT on May 24, 2017 (GMT -0500)
Beatrice Municipal

Weather History for KBIE - January, 2008

Change the Weather History Date:

Thursday, January 10, 2008

  Actual Average Record
Temperature  
Mean Temperature 32 °F -  
Max Temperature 35 °F 29 °F 59 °F (2012)
Min Temperature 30 °F 8 °F -18 °F (1982)
Degree Days  
Heating Degree Days 32    
Moisture  
Dew Point 29 °F    
Average Humidity 85    
Maximum Humidity 100    
Minimum Humidity 69    
Precipitation  
Precipitation 0.00 in - - ()
Sea Level Pressure  
Sea Level Pressure 29.72 in    
Wind  
Wind Speed 12 mph (North)    
Max Wind Speed 25 mph    
Max Gust Speed 28 mph    
Visibility 8 miles    
Events Snow    
Averages and records for this station are not official NWS values.
T = Trace of Precipitation, MM = Missing Value Source: NWS Daily Summary

Daily Weather History Graph

Daily Weather History Graph

Search for Another Location

Airport or City:

Trip Planner

Search our weather history database for the weather conditions in past years. The results will help you decide how hot, cold, wet, or windy it might be!

Date:

Astronomy

Jan. 10, 2008 Rise Set
Actual Time 7:49 AM CST 5:19 PM CST
Civil Twilight 7:19 AM CST 5:49 PM CST
Nautical Twilight 6:45 AM CST 6:23 PM CST
Astronomical Twilight 6:12 AM CST 6:56 PM CST
Moon 9:23 AM CST (1/10) 7:46 PM CST (1/10)
Length of Visible Light 10h 30m
Length of Day
9h 30m
Waxing Crescent, 5% of the Moon is Illuminated
Jan 10
Waxing Crescent
Jan 15
First Quarter
Jan 22
Full
Jan 29
Last Quarter
Feb 6
New

Hourly Weather History & Observations

Time (CST) Temp. Windchill Dew Point Humidity Pressure Visibility Wind Dir Wind Speed Gust Speed Precip Events Conditions
12:10 AM 35.6 °F 30.7 °F 30.2 °F 81% 29.73 in 10.0 mi East 5.8 mph - N/A   Mostly Cloudy
12:30 AM 35.6 °F 29.9 °F 30.2 °F 81% 29.72 in 10.0 mi East 6.9 mph - N/A   Mostly Cloudy
12:50 AM 35.6 °F 30.7 °F 30.2 °F 81% 29.72 in 10.0 mi East 5.8 mph - N/A   Overcast
1:10 AM 35.6 °F 30.7 °F 30.2 °F 81% 29.71 in 10.0 mi East 5.8 mph - N/A   Overcast
1:30 AM 35.6 °F 29.9 °F 30.2 °F 81% 29.70 in 10.0 mi East 6.9 mph - N/A   Overcast
1:50 AM 35.6 °F 30.7 °F 30.2 °F 81% 29.69 in 10.0 mi East 5.8 mph - N/A   Overcast
2:10 AM 33.8 °F 28.6 °F 30.2 °F 87% 29.69 in 10.0 mi East 5.8 mph - N/A   Overcast
2:30 AM 33.8 °F 27.0 °F 30.2 °F 87% 29.67 in 10.0 mi ENE 8.1 mph - N/A   Overcast
2:50 AM 33.8 °F 27.7 °F 30.2 °F 87% 29.68 in 10.0 mi ENE 6.9 mph - N/A   Mostly Cloudy
3:10 AM 33.8 °F 29.6 °F 30.2 °F 87% 29.69 in 10.0 mi NE 4.6 mph - N/A   Mostly Cloudy
3:30 AM 32.0 °F 23.0 °F 30.2 °F 93% 29.69 in 10.0 mi North 11.5 mph - N/A   Overcast
3:50 AM 32.0 °F 23.6 °F 30.2 °F 93% 29.71 in 10.0 mi North 10.4 mph - N/A   Overcast
4:10 AM 32.0 °F 23.0 °F 30.2 °F 93% 29.69 in 10.0 mi North 11.5 mph - N/A   Overcast
4:30 AM 32.0 °F 22.1 °F 30.2 °F 93% 29.69 in 10.0 mi NNE 13.8 mph - N/A   Overcast
4:50 AM 32.0 °F 22.1 °F 30.2 °F 93% 29.68 in 10.0 mi NNE 13.8 mph - N/A   Overcast
5:10 AM 33.8 °F 23.9 °F 30.2 °F 87% 29.67 in 10.0 mi North 15.0 mph - N/A   Overcast
5:30 AM 33.8 °F 24.3 °F 30.2 °F 87% 29.68 in 10.0 mi NNE 13.8 mph - N/A   Overcast
5:50 AM 32.0 °F 23.0 °F 30.2 °F 93% 29.68 in 10.0 mi NNE 11.5 mph 19.6 mph N/A   Overcast
6:10 AM 33.8 °F 24.3 °F 30.2 °F 87% 29.69 in 10.0 mi NNE 13.8 mph - N/A   Overcast
6:30 AM 32.0 °F 23.0 °F 30.2 °F 93% 29.69 in 10.0 mi North 11.5 mph - N/A   Overcast
6:50 AM 32.0 °F 21.6 °F 30.2 °F 93% 29.69 in 5.0 mi North 15.0 mph - N/A Snow Light Snow
7:10 AM 32.0 °F 22.5 °F 30.2 °F 93% 29.69 in 4.0 mi North 12.7 mph 19.6 mph N/A Snow Light Snow
7:30 AM 32.0 °F 22.1 °F 30.2 °F 93% 29.70 in 7.0 mi North 13.8 mph - N/A Snow Light Snow
7:50 AM 32.0 °F 20.5 °F 32.0 °F 100% 29.70 in 7.0 mi North 18.4 mph 23.0 mph N/A   Overcast
8:10 AM 32.0 °F 20.1 °F 32.0 °F 100% 29.70 in 5.0 mi North 19.6 mph 24.2 mph N/A Snow Light Snow
8:30 AM 32.0 °F 20.8 °F 32.0 °F 100% 29.69 in 4.0 mi North 17.3 mph 24.2 mph N/A Snow Light Snow
8:50 AM 32.0 °F 20.5 °F 30.2 °F 93% 29.69 in 7.0 mi North 18.4 mph - N/A   Overcast
9:10 AM 32.0 °F 19.8 °F 30.2 °F 93% 29.69 in 7.0 mi North 20.7 mph 26.5 mph N/A   Overcast
9:30 AM 32.0 °F 19.2 °F 30.2 °F 93% 29.70 in 2.5 mi North 23.0 mph - N/A   Overcast
9:50 AM 32.0 °F 20.5 °F 30.2 °F 93% 29.71 in 1.5 mi North 18.4 mph - N/A Snow Light Snow
10:10 AM 32.0 °F 18.9 °F 30.2 °F 93% 29.72 in 1.5 mi North 24.2 mph 27.6 mph N/A Snow Light Snow
10:30 AM 32.0 °F 20.1 °F 30.2 °F 93% 29.73 in 5.0 mi North 19.6 mph - N/A Snow Light Snow
10:50 AM 32.0 °F 20.5 °F 30.2 °F 93% 29.74 in 5.0 mi NNW 18.4 mph 21.9 mph N/A Snow Light Snow
11:10 AM 32.0 °F 19.8 °F 30.2 °F 93% 29.74 in 2.0 mi NNW 20.7 mph - N/A Snow Light Snow
11:30 AM 32.0 °F 20.8 °F 28.4 °F 87% 29.74 in 3.0 mi NNW 17.3 mph - N/A Snow Light Snow
11:50 AM 32.0 °F 21.6 °F 28.4 °F 87% 29.73 in 7.0 mi NNW 15.0 mph - N/A Snow Light Snow
12:10 PM 32.0 °F 19.8 °F 28.4 °F 87% 29.72 in 10.0 mi NNW 20.7 mph - N/A   Overcast
12:30 PM 32.0 °F 19.2 °F 26.6 °F 80% 29.72 in 10.0 mi NNW 23.0 mph - N/A   Overcast
12:50 PM 32.0 °F 21.2 °F 26.6 °F 80% 29.72 in 10.0 mi NW 16.1 mph 25.3 mph N/A   Overcast
1:10 PM 33.8 °F 22.8 °F 28.4 °F 81% 29.71 in 10.0 mi NW 18.4 mph - N/A   Scattered Clouds
1:30 PM 32.0 °F 19.2 °F 26.6 °F 80% 29.71 in 10.0 mi NW 23.0 mph 27.6 mph N/A   Clear
1:50 PM 33.8 °F 22.2 °F 26.6 °F 75% 29.72 in 10.0 mi NW 20.7 mph 24.2 mph N/A   Clear
2:10 PM 33.8 °F 22.5 °F 26.6 °F 75% 29.72 in 10.0 mi NNW 19.6 mph 26.5 mph N/A   Clear
2:30 PM 33.8 °F 22.2 °F 26.6 °F 75% 29.73 in 10.0 mi NW 20.7 mph - N/A   Clear
2:50 PM 32.0 °F 18.6 °F 24.8 °F 75% 29.74 in 10.0 mi NW 25.3 mph - N/A   Clear
3:10 PM 33.8 °F 23.2 °F 26.6 °F 75% 29.74 in 10.0 mi NW 17.3 mph 23.0 mph N/A   Clear
3:30 PM 33.8 °F 22.8 °F 24.8 °F 70% 29.74 in 10.0 mi NNW 18.4 mph 25.3 mph N/A   Clear
3:50 PM 33.8 °F 22.2 °F 24.8 °F 70% 29.75 in 10.0 mi NW 20.7 mph - N/A   Clear
4:10 PM 33.8 °F 23.2 °F 24.8 °F 70% 29.76 in 10.0 mi NW 17.3 mph - N/A   Clear
4:30 PM 32.0 °F 20.1 °F 24.8 °F 75% 29.77 in 10.0 mi NW 19.6 mph - N/A   Clear
4:50 PM 32.0 °F 22.5 °F 24.8 °F 75% 29.78 in 10.0 mi NW 12.7 mph - N/A   Clear
5:10 PM 32.0 °F 23.6 °F 24.8 °F 75% 29.78 in 10.0 mi NW 10.4 mph - N/A   Clear
5:30 PM 32.0 °F 23.0 °F 23.0 °F 69% 29.78 in 10.0 mi NW 11.5 mph - N/A   Clear
5:50 PM 30.2 °F 21.3 °F 23.0 °F 75% 29.79 in 10.0 mi WNW 10.4 mph - N/A   Clear
6:10 PM 32.0 °F 23.0 °F 23.0 °F 69% 29.79 in 10.0 mi WNW 11.5 mph - N/A   Clear
6:30 PM 30.2 °F 21.9 °F 23.0 °F 75% 29.79 in 10.0 mi WNW 9.2 mph - N/A   Clear
6:50 PM 30.2 °F 21.9 °F 23.0 °F 75% 29.80 in 10.0 mi WNW 9.2 mph - N/A   Clear
7:10 PM 28.4 °F 20.4 °F 23.0 °F 80% 29.80 in 10.0 mi West 8.1 mph - N/A   Clear
7:30 PM 28.4 °F 19.7 °F 23.0 °F 80% 29.80 in 10.0 mi West 9.2 mph - N/A   Clear
7:50 PM 28.4 °F 21.2 °F 23.0 °F 80% 29.81 in 10.0 mi West 6.9 mph - N/A   Clear
8:10 PM 28.4 °F 21.2 °F 23.0 °F 80% 29.81 in 10.0 mi West 6.9 mph - N/A   Clear
8:30 PM 28.4 °F 20.4 °F 21.2 °F 74% 29.81 in 10.0 mi West 8.1 mph - N/A   Clear
8:50 PM 26.6 °F 21.2 °F 21.2 °F 80% 29.81 in 10.0 mi West 4.6 mph - N/A   Clear
9:10 PM 26.6 °F 19.1 °F 21.2 °F 80% 29.81 in 10.0 mi West 6.9 mph - N/A   Clear
9:30 PM 26.6 °F 19.1 °F 21.2 °F 80% 29.81 in 10.0 mi West 6.9 mph - N/A   Clear
9:50 PM 26.6 °F 19.1 °F 21.2 °F 80% 29.83 in 10.0 mi West 6.9 mph - N/A   Clear
10:10 PM 26.6 °F 20.0 °F 19.4 °F 74% 29.83 in 10.0 mi West 5.8 mph - N/A   Clear
10:30 PM 26.6 °F 19.1 °F 19.4 °F 74% 29.83 in 10.0 mi West 6.9 mph - N/A   Clear
10:50 PM 24.8 °F 16.9 °F 19.4 °F 80% 29.84 in 10.0 mi West 6.9 mph - N/A   Clear
11:10 PM 24.8 °F 15.3 °F 19.4 °F 80% 29.85 in 10.0 mi West 9.2 mph - N/A   Clear
11:30 PM 23.0 °F 17.0 °F 19.4 °F 86% 29.83 in 10.0 mi West 4.6 mph - N/A   Clear
11:50 PM 23.0 °F - 19.4 °F 86% 29.83 in 10.0 mi Calm Calm - N/A   Clear